RH
105 107 107 106 107 110 109 108 105 101 97 94 91 89 87 85 83 82 82 82 82 82 81 80 79 77 77 75 74 72 70 68 66 66 66 67 68 70 72 74 75 76 76 75 73 71 70 68 66 64 62 61 59 58 57 56 55 54 53 54 55 56 56 57 58 60 60 60 59 56 52 48 45 45 46 48 48 47 43 38 35 32 31 29 28 28 28 29
99 104 108 108 106 106 105 105 103 100 96 93 90 87 85 83 81 79 78 77 76 76 76 76 75 73 73 71 71 69 68 67 65 63 63 62 63 63 65 66 67 68 69 69 68 67 65 64 63 62 60 58 57 57 56 55 55 54 55 57 58 61 63 63 64 64 64 62 57 52 49 46 47 50 53 54 52 47 40 35 33 31 30 29 29 29 29 30
95 100 103 107 108 106 104 102 101 99 95 92 88 85 82 81 79 78 77 75 74 73 73 72 71 70 68 67 66 65 65 65 64 63 61 60 60 59 60 60 61 62 62 62 62 61 60 60 59 58 57 56 56 55 54 55 56 57 59 63 65 68 70 70 69 68 65 59 53 49 48 51 56 59 60 58 51 43 36 33 31 30 30 30 30 30 30 31
83 93 99 102 104 105 105 103 103 102 97 93 89 85 82 79 77 76 75 74 73 72 70 69 68 67 66 65 63 63 63 62 62 61 60 59 57 57 56 56 57 57 58 57 57 56 56 56 55 55 54 54 54 55 56 57 61 64 68 71 74 75 76 75 73 69 62 56 51 50 56 63 67 65 63 57 47 39 35 32 31 31 30 30 30 30 31 32
72 79 87 95 99 100 101 100 101 101 99 97 95 92 87 83 79 76 75 74 72 70 69 67 66 64 63 62 61 61 61 60 59 59 58 57 56 56 56 55 55 55 55 54 53 53 53 53 53 53 54 54 55 58 61 65 70 74 77 80 81 82 81 79 73 65 59 54 53 58 68 75 73 68 61 51 42 37 34 32 32 31 31 30 30 30 31 32
74 76 78 82 87 92 94 95 95 94 94 94 94 92 90 87 83 80 78 76 74 71 69 67 65 63 61 59 58 57 57 57 56 55 54 53 53 52 53 53 52 51 51 50 50 50 51 52 52 53 55 58 62 68 73 78 82 84 87 89 89 87 84 77 69 62 57 55 59 70 79 80 75 67 55 44 38 36 34 33 32 32 31 30 30 31 32 32
74 78 80 79 79 82 84 86 88 87 87 86 86 86 86 85 82 81 79 77 75 72 70 67 64 61 58 56 55 54 53 53 51 51 50 49 49 48 48 48 48 48 47 47 47 49 51 53 55 58 63 69 76 82 87 90 91 93 96 97 94 87 79 71 64 60 57 62 71 82 86 80 71 60 48 40 37 36 35 34 33 32 32 31 32 32 32 32
69 73 76 78 79 78 78 77 77 78 77 77 76 76 76 76 75 74 72 72 70 69 68 65 63 59 57 54 52 52 50 49 48 47 47 46 45 44 44 44 44 44 44 46 47 50 54 58 64 71 79 86 91 94 96 97 98 101 102 98 89 79 73 66 61 61 65 76 84 90 88 75 63 53 43 39 37 37 37 36 34 34 33 33 33 34 34 34
66 68 68 70 71 71 71 70 69 68 66 65 64 63 63 62 60 59 58 58 58 58 57 56 55 53 52 50 48 47 45 44 43 43 43 42 41 41 41 41 41 42 44 47 51 57 64 70 79 87 94 98 99 100 99 100 103 104 99 88 79 73 68 63 62 69 79 88 90 91 82 66 56 49 42 39 38 38 38 37 36 35 35 35 36 36 35 36
64 65 65 65 65 64 63 62 61 59 58 56 55 53 52 50 48 46 45 44 44 44 44 44 43 43 42 41 40 40 38 37 37 37 36 37 37 37 38 39 41 44 49 54 61 69 77 85 93 97 101 102 101 101 102 103 103 96 87 78 74 70 64 63 72 83 91 92 90 87 72 56 51 47 42 40 39 39 40 40 38 37 37 38 39 38 37 38
62 63 63 64 63 63 61 59 58 56 54 51 49 48 46 45 43 41 39 38 37 37 37 38 37 37 36 36 35 34 33 33 33 33 34 35 36 37 39 41 45 49 57 66 74 81 88 95 99 100 102 102 101 103 104 101 93 83 78 74 70 66 65 74 87 94 96 94 89 80 63 51 49 45 42 41 40 41 43 43 41 38 39 40 40 39 38 39
64 65 65 65 64 63 62 60 58 55 53 51 48 47 45 44 42 41 40 38 38 37 38 39 38 37 37 36 35 33 33 32 33 33 34 35 36 38 41 46 50 57 67 79 86 91 97 100 100 100 100 101 103 104 100 90 82 78 76 71 67 70 78 88 94 96 98 94 86 73 58 51 48 44 43 42 42 44 47 46 42 38 39 40 41 40 40 42
64 64 64 64 63 62 61 60 58 55 54 52 50 49 47 46 44 42 42 40 40 40 40 41 40 40 38 37 36 34 34 33 33 33 33 35 37 41 44 49 55 65 79 90 94 97 101 101 99 99 100 102 102 98 90 82 79 77 72 68 72 82 90 94 95 97 97 91 80 66 55 51 48 43 43 43 43 45 47 45 39 37 39 40 41 41 43 45
65 65 64 63 62 60 59 56 55 53 51 50 49 48 47 46 44 42 40 40 39 39 40 40 40 39 37 36 35 33 32 30 30 30 32 36 40 44 49 57 66 78 90 96 98 99 101 100 100 101 101 101 98 90 84 82 78 72 69 74 83 91 94 95 96 97 94 84 71 59 52 52 50 45 42 42 42 45 47 44 39 39 40 41 43 44 47 48
72 71 69 67 64 61 58 54 51 48 46 45 43 42 42 42 41 40 38 37 37 37 37 36 35 35 33 32 31 29 29 28 29 30 34 40 46 53 60 70 80 87 94 98 100 100 100 101 102 103 100 96 90 85 83 79 71 68 76 87 91 93 94 93 96 96 89 75 62 53 50 53 53 48 45 43 43 48 51 46 43 43 43 42 44 47 48 48
77 75 73 70 67 63 58 54 50 45 41 39 37 37 36 35 35 35 35 34 34 33 33 32 32 31 30 29 28 30 31 33 36 38 43 49 55 64 72 81 89 94 97 100 100 100 101 102 101 99 96 91 86 83 79 71 67 75 88 95 92 90 91 92 94 93 83 67 55 51 50 53 55 52 48 46 46 51 53 50 47 45 43 43 45 48 48 46
83 83 80 77 74 69 62 56 50 44 38 34 32 31 30 29 29 29 30 29 29 29 29 29 28 28 27 27 32 40 45 46 47 50 56 62 69 79 87 93 97 99 100 100 100 101 101 100 97 94 92 87 82 77 71 68 75 87 94 94 90 87 89 92 93 88 75 60 53 50 50 53 56 54 51 50 50 53 54 51 48 44 43 44 46 47 46 45
92 93 90 85 79 72 64 56 48 41 35 30 27 25 23 22 21 21 22 22 22 23 24 25 25 26 29 33 43 54 59 59 62 70 79 85 90 95 98 100 100 100 100 100 100 99 98 96 94 92 87 81 76 71 71 77 87 93 94 91 86 85 89 93 91 81 66 56 52 49 50 54 58 57 54 52 52 53 51 48 46 44 43 43 44 45 46 47
99 97 90 85 78 69 61 52 43 36 29 24 21 18 17 15 15 15 15 16 16 18 21 23 25 30 40 52 61 67 69 73 81 91 97 99 100 100 100 100 100 100 100 99 98 98 97 95 93 88 81 76 74 74 78 86 91 93 93 87 80 83 91 93 88 75 59 51 51 49 50 55 58 59 56 53 52 50 47 45 44 43 42 43 46 47 47 48
104 96 86 81 75 65 57 46 35 28 22 19 16 14 14 12 13 13 13 15 15 18 21 25 34 45 55 62 69 80 87 91 95 98 99 99 99 100 101 100 99 100 100 100 100 98 96 93 89 83 78 78 79 83 87 89 91 92 89 81 76 83 93 93 85 71 55 49 51 50 51 56 59 58 56 52 49 46 44 43 44 44 45 48 50 50 49 50
103 94 83 78 71 61 53 41 29 23 18 17 16 14 13 12 12 13 14 15 16 20 25 36 51 62 67 68 75 89 98 99 98 100 100 99 100 101 102 102 102 103 102 101 100 96 93 91 86 82 84 85 87 91 93 91 88 87 83 78 78 85 93 91 79 66 54 48 50 51 52 57 60 57 53 50 48 45 46 47 47 47 49 52 52 51 51 53
97 91 82 75 66 57 49 35 26 22 18 17 16 14 13 13 13 14 16 18 20 25 34 52 69 77 82 88 94 97 99 100 100 101 100 99 101 102 102 102 103 102 100 98 95 92 92 91 88 90 93 92 92 96 97 93 87 84 82 79 82 89 93 90 77 63 53 48 50 51 51 57 63 61 54 51 50 48 49 51 50 50 53 55 54 53 54 53
92 88 81 72 63 54 46 33 26 25 21 17 16 14 14 14 15 18 20 23 29 37 47 59 74 85 90 94 99 99 99 100 100 100 100 100 102 102 102 102 101 98 94 92 92 94 94 94 96 98 97 95 98 101 100 96 91 87 85 81 85 92 93 88 77 64 55 50 49 49 50 54 63 68 62 55 52 51 53 53 50 53 57 57 55 52 51 48
88 86 80 72 63 54 44 33 28 29 25 19 16 15 15 18 20 24 25 29 41 54 60 64 73 83 89 92 97 98 99 100 100 100 100 100 102 102 102 101 97 93 91 93 96 99 99 102 103 99 93 96 102 102 99 98 94 90 88 84 88 96 95 87 74 62 55 53 51 49 48 50 60 71 69 62 57 54 54 52 51 53 55 53 49 46 46 46
85 85 82 76 66 55 46 36 30 32 28 21 18 16 18 23 27 29 31 38 51 62 67 71 76 80 83 88 93 93 94 96 98 98 99 100 101 101 99 95 93 93 96 99 100 102 104 103 99 93 93 100 103 100 99 98 95 93 91 88 91 97 95 86 70 56 51 52 54 52 48 48 58 68 68 63 58 54 53 50 48 50 48 46 43 43 45 47
83 86 85 80 72 59 49 40 32 32 30 24 20 17 19 26 32 33 36 45 56 64 73 77 81 86 88 90 93 94 95 96 96 97 96 96 95 97 98 96 97 99 100 101 103 106 102 96 92 93 101 106 104 101 101 98 95 97 96 92 94 95 91 81 64 50 47 48 53 55 50 46 52 62 63 59 55 53 52 48 47 47 44 42 42 44 47 50
83 87 87 83 75 64 54 43 35 33 32 27 21 19 21 27 35 39 37 45 56 66 78 85 88 94 96 95 97 99 100 99 99 98 96 96 97 99 100 100 100 101 101 102 105 103 96 92 96 102 108 110 106 104 102 99 96 97 97 94 94 92 84 71 55 46 45 45 51 55 51 46 49 57 60 56 53 52 50 46 44 42 41 42 44 46 52 61
83 88 89 85 77 67 55 43 36 33 31 28 23 23 25 28 38 46 44 48 59 67 77 84 91 97 97 96 99 99 100 100 99 100 100 100 100 100 101 102 104 104 101 100 101 99 95 99 104 108 110 109 108 106 103 99 95 93 94 92 89 84 73 58 46 43 43 43 48 52 50 47 47 55 58 53 50 49 46 42 42 42 43 43 46 54 64 70
84 90 91 86 78 68 53 41 36 32 28 28 26 25 28 34 42 50 53 55 59 65 71 76 82 89 92 95 98 98 98 98 99 99 98 99 100 101 104 107 108 106 99 97 99 100 101 104 106 108 109 108 108 107 103 97 93 92 91 88 82 72 57 44 39 42 42 42 45 46 46 46 47 54 56 51 49 48 44 43 44 44 45 49 60 71 70 61
86 91 90 85 78 65 49 40 35 30 24 24 26 25 27 35 43 49 55 57 59 64 69 73 76 81 85 88 92 94 94 95 96 97 97 99 102 104 108 110 106 100 98 101 103 104 107 109 108 107 108 109 109 105 99 95 94 91 87 79 67 54 42 37 38 40 40 39 41 42 44 46 47 51 51 49 50 49 46 45 45 46 52 64 72 66 52 43
89 90 87 82 73 58 45 40 33 27 22 19 22 25 25 30 36 43 49 53 58 64 68 74 77 81 84 85 88 90 91 93 94 97 99 101 103 105 107 104 98 97 102 105 104 104 107 109 108 107 106 106 104 100 97 95 93 85 74 61 47 39 36 35 37 38 38 38 38 40 43 45 47 48 49 50 51 51 51 49 49 53 62 67 59 45 38 41
89 86 84 78 64 49 40 36 29 23 20 17 16 19 23 24 26 32 37 43 55 63 68 74 79 83 86 88 89 89 91 92 92 94 96 97 101 102 99 95 95 100 105 105 102 104 108 108 106 104 102 101 100 98 95 89 79 66 54 44 36 34 33 34 35 37 37 36 37 39 43 46 48 50 54 59 62 63 60 54 52 57 60 53 42 38 42 46
85 82 81 71 53 41 36 29 24 20 18 17 15 13 15 17 18 21 24 31 44 54 63 74 82 89 92 93 93 94 93 93 94 96 98 100 102 98 95 96 98 100 104 104 104 107 109 108 106 103 102 102 102 98 88 73 58 48 42 37 35 34 33 33 35 35 36 37 38 41 45 49 56 66 74 74 69 60 51 47 50 53 52 46 42 45 50 51
82 81 76 60 44 36 30 22 18 18 17 16 13 11 11 12 12 13 15 19 27 37 50 64 75 85 92 95 99 100 101 101 102 104 105 105 102 98 98 101 100 102 106 107 106 109 110 109 107 106 105 105 102 90 71 53 42 39 39 37 36 36 33 33 34 35 37 37 39 46 54 65 78 88 84 67 51 41 39 44 50 52 51 48 47 51 52 51
80 77 64 48 37 30 22 17 15 16 16 14 12 11 11 10 10 10 10 12 15 23 34 48 61 74 84 91 95 98 100 103 104 105 105 103 103 103 104 103 102 105 109 108 106 106 108 109 109 110 109 100 86 68 49 40 38 38 38 38 37 37 35 35 34 35 37 39 49 64 72 80 88 84 66 47 38 39 44 49 52 53 52 49 49 51 51 49
78 68 52 38 31 22 15 14 14 14 15 13 11 11 10 10 9 9 9 9 10 14 21 32 46 60 72 82 89 93 96 101 103 103 102 101 104 107 105 106 108 108 107 104 99 95 94 103 110 108 100 81 60 48 41 39 38 36 37 37 36 36 36 35 34 39 47 50 56 66 67 68 72 65 50 42 43 47 51 52 53 54 51 50 51 52 51 52
71 57 42 33 24 16 13 13 13 14 13 11 11 11 11 10 10 9 9 9 10 11 15 21 31 44 57 67 76 83 87 92 97 100 102 101 103 106 106 109 109 104 100 93 88 83 76 83 92 86 70 54 43 41 40 39 38 37 38 37 35 35 35 38 43 50 55 48 43 48 50 55 63 58 46 45 49 51 51 52 53 52 50 51 54 55 57 60
61 45 34 25 16 12 13 12 12 13 11 11 12 12 12 12 11 11 11 11 12 14 17 20 24 33 43 51 59 66 74 82 89 94 99 99 99 101 100 99 94 90 88 80 73 68 56 56 63 58 48 43 42 42 41 41 39 38 38 37 37 38 40 44 47 48 45 36 35 39 44 59 68 57 45 48 51 49 50 53 53 52 52 55 59 62 65 66
49 36 25 17 12 11 12 11 12 12 11 12 13 13 14 14 13 14 14 14 15 17 21 25 29 33 39 46 54 60 66 73 77 80 83 84 85 86 85 82 79 75 70 61 54 48 41 40 44 45 45 45 44 43 40 39 39 39 41 41 41 41 41 40 40 42 38 35 38 38 42 62 66 50 45 50 49 48 51 53 53 54 58 61 64 65 65 64
38 26 17 12 11 11 11 11 12 12 13 15 15 15 16 17 18 19 20 20 20 22 24 28 34 38 42 46 53 58 59 61 62 65 67 66 67 72 71 66 61 55 48 42 39 38 38 39 42 44 45 43 42 42 40 41 41 42 42 39 36 36 36 36 39 44 43 41 44 40 43 58 56 45 48 49 45 48 52 53 56 61 64 65 64 63 62 62
26 16 12 11 12 12 12 12 13 14 16 17 17 18 19 21 21 21 22 23 25 27 29 31 35 39 41 44 47 52 54 53 52 51 52 50 49 52 50 44 40 37 35 35 36 37 38 39 41 42 43 44 45 42 38 37 37 35 34 33 33 36 38 39 41 45 46 48 48 42 45 56 55 50 51 46 46 53 56 58 63 66 67 66 66 65 63 60
16 11 11 12 12 12 13 14 16 18 20 21 21 22 22 23 23 22 23 24 24 27 29 31 33 34 37 39 40 42 46 48 44 39 38 37 35 35 33 31 31 33 33 35 36 36 35 37 40 44 46 47 41 33 29 32 34 35 35 36 39 42 44 44 45 46 46 48 48 43 45 52 55 55 51 46 52 58 60 63 64 66 68 68 67 65 61 59
11 11 12 13 13 13 15 17 20 22 23 23 23 22 22 22 22 22 23 24 25 26 28 30 30 31 33 34 35 35 37 40 38 32 30 30 29 28 28 29 31 33 34 34 34 35 38 40 40 41 43 40 33 29 33 40 43 42 42 42 44 48 49 49 49 47 46 47 47 46 45 47 55 59 52 49 57 61 63 64 64 67 70 70 69 65 62 63
11 12 12 13 14 16 18 21 24 25 25 23 22 21 21 21 21 22 23 23 25 25 27 28 28 29 29 29 30 29 28 31 32 29 28 28 28 28 28 30 31 31 32 34 37 40 41 38 34 33 36 37 38 43 50 54 53 50 49 50 53 54 53 53 53 52 50 49 50 52 50 54 64 63 55 57 64 66 67 69 72 75 75 73 70 66 67 71
12 12 13 15 18 20 22 24 26 26 24 23 21 20 21 21 21 22 22 22 23 24 25 26 24 25 25 25 25 25 24 26 27 27 27 27 27 28 30 30 30 31 35 38 40 40 38 36 34 34 34 34 40 49 55 57 56 55 56 57 58 58 57 58 59 57 53 50 55 60 57 61 71 68 61 66 70 69 72 76 78 79 77 75 71 68 71 74
11 13 16 20 22 23 25 27 27 25 22 21 21 21 21 21 20 20 21 21 22 22 22 23 22 22 23 23 23 23 23 24 24 26 27 27 28 29 30 30 33 36 39 38 37 37 40 42 41 40 37 36 42 47 49 51 52 54 56 57 58 58 59 62 61 60 57 55 61 66 61 63 73 71 66 69 70 68 70 72 74 77 79 78 72 68 70 71
14 18 21 23 24 25 26 26 24 21 20 20 20 19 19 19 19 19 20 21 21 21 21 22 22 22 23 23 24 24 24 25 26 27 27 28 29 30 32 35 38 38 36 35 35 38 44 46 46 48 45 41 46 50 50 51 52 52 55 56 56 56 59 62 61 61 63 62 65 70 67 67 70 68 65 65 64 63 66 70 74 79 81 75 67 65 67 68
19 22 24 24 25 26 25 23 21 20 19 18 18 18 18 19 19 20 20 21 21 21 22 22 23 23 24 25 25 26 27 27 27 28 29 30 31 33 36 37 36 35 34 36 37 39 44 48 49 53 52 46 48 52 52 52 52 51 53 54 55 56 57 60 62 66 70 70 70 70 68 67 64 61 62 63 63 66 70 75 80 82 78 69 62 64 67 67
22 23 24 25 25 24 22 21 19 18 17 17 17 18 19 20 20 21 21 22 22 23 23 24 24 25 26 27 27 28 28 29 30 32 33 34 35 37 37 34 32 34 36 38 39 40 45 48 50 56 61 56 53 55 55 54 54 54 55 55 55 57 57 60 66 73 76 74 71 68 66 65 62 62 66 71 73 75 78 82 85 84 76 67 64 67 69 70
21 23 24 24 23 21 20 19 18 17 18 18 19 19 21 21 22 23 23 23 24 24 25 25 26 27 28 29 29 30 31 32 33 35 36 38 39 36 32 32 34 37 38 40 43 44 45 49 51 59 68 67 61 61 61 59 59 58 58 58 58 58 58 60 68 77 79 75 72 69 66 65 68 72 77 82 82 82 84 86 86 82 74 69 70 72 72 70
23 24 24 23 21 19 18 18 18 19 19 20 21 21 22 23 23 24 24 25 25 26 26 27 28 29 29 30 31 31 33 34 34 37 40 40 37 32 31 36 39 40 42 45 48 47 47 52 55 59 69 73 69 67 66 63 61 60 59 59 58 56 56 61 70 80 81 73 70 69 67 69 76 80 82 84 85 84 83 83 82 79 75 73 75 73 68 64
24 23 22 21 20 19 19 19 20 20 21 22 23 23 23 24 24 25 25 25 26 27 28 28 29 29 29 30 31 32 34 36 39 41 39 34 32 32 35 39 40 43 47 49 50 51 52 55 57 59 66 72 69 66 66 63 60 58 58 58 56 56 58 64 74 83 80 72 69 69 69 72 76 78 78 79 80 78 75 76 81 81 75 71 69 65 60 56
Wind_Speed
41 41 41 41 41 41 42 42 43 44 44 45 45 46 47 47 48 49 50 50 51 51 51 52 52 52 52 53 53 54 54 55 55 56 56 56 56 56 57 57 57 58 58 58 58 59 59 60 61 61 62 62 62 62 63 63 63 64 64 64 64 64 64 64 64 64 63 63 62 62 61 60 58 56 54 51 49 46 43 42 41 41 41 41 42 43 44 45
42 42 42 42 42 43 43 43 44 44 45 45 46 47 47 48 49 50 51 51 52 53 53 54 54 54 55 55 55 55 55 55 56 56 57 57 57 57 57 57 58 58 59 59 60 60 61 61 62 63 64 64 64 64 64 64 64 64 63 63 63 62 62 62 61 61 61 60 60 59 58 56 54 52 50 47 44 42 41 41 41 40 41 41 42 43 45 46
42 42 42 43 43 43 44 44 45 45 46 46 47 47 48 49 50 50 51 52 53 54 55 55 56 56 57 57 57 57 57 57 57 57 58 58 58 58 58 59 59 59 60 60 61 61 62 63 63 64 64 65 65 65 64 64 63 63 62 61 60 60 59 59 59 58 58 58 57 56 55 52 50 48 45 43 42 40 40 40 41 41 41 42 43 44 45 47
40 41 42 42 43 44 44 45 45 46 46 47 48 48 49 50 50 51 51 52 53 55 55 56 57 58 58 59 59 59 60 60 60 60 59 59 59 59 60 60 60 60 60 61 61 62 62 63 63 64 64 64 64 63 63 62 61 59 58 58 57 57 56 56 56 56 56 56 55 53 51 48 46 45 43 42 40 40 41 41 41 42 42 43 44 45 46 48
37 38 40 41 42 43 44 45 45 46 47 48 48 49 50 51 52 52 53 54 55 56 56 57 58 59 60 61 61 61 62 62 62 62 62 62 62 61 61 61 61 61 61 61 61 62 62 62 62 62 62 62 61 60 59 58 57 55 55 54 54 54 53 54 54 55 55 54 52 49 47 45 44 43 42 42 40 41 42 42 42 43 44 45 45 46 47 49
33 35 36 38 40 41 42 43 45 46 47 48 49 50 51 52 53 53 54 55 56 57 57 58 59 61 62 62 63 63 64 64 64 64 64 64 64 63 63 63 62 62 62 62 61 60 60 60 60 59 59 58 57 56 54 53 52 51 51 51 51 52 52 53 54 55 54 52 49 46 45 44 43 43 42 41 40 42 44 43 44 45 45 46 47 47 49 50
30 32 34 35 37 38 40 42 43 45 46 48 49 50 51 52 54 54 55 56 57 58 58 59 61 62 63 63 64 65 65 65 65 65 65 65 65 64 64 63 63 62 61 60 59 58 57 57 56 55 54 53 52 51 50 49 48 48 48 49 50 51 52 54 55 54 52 48 46 44 44 44 43 43 43 42 42 44 45 45 45 46 47 47 48 49 51 52
27 29 31 33 34 36 38 39 41 43 45 46 48 49 51 52 54 55 56 57 58 59 59 60 61 62 63 64 64 65 66 66 65 65 65 65 64 63 63 62 61 60 58 57 56 54 53 53 52 51 49 48 47 46 46 45 45 46 47 49 50 52 53 54 54 51 48 45 44 44 44 44 44 43 43 43 43 45 46 47 47 46 48 48 49 51 52 54
25 27 28 30 32 33 35 37 39 41 43 44 46 48 49 51 53 54 55 56 57 58 59 60 61 62 62 63 64 64 65 65 64 64 63 62 61 60 58 57 56 55 54 52 51 50 49 48 47 46 45 44 43 43 43 43 44 46 48 50 51 53 54 54 51 47 44 43 43 44 44 45 45 43 43 44 44 45 47 47 47 48 49 50 51 53 54 56
23 25 26 28 29 31 33 35 36 38 40 42 43 45 47 48 50 51 52 53 54 54 55 56 57 59 59 60 60 60 61 60 60 59 58 56 55 53 52 51 50 49 48 47 46 45 44 43 43 42 41 41 41 41 42 43 45 47 49 51 53 54 54 51 47 44 43 43 44 44 45 46 46 43 44 45 45 46 47 48 48 49 50 51 53 55 56 57
20 22 23 25 27 29 30 32 33 35 37 38 40 41 43 44 45 46 47 47 48 48 49 50 51 52 53 53 54 54 54 53 52 51 50 49 48 47 47 46 45 44 43 42 42 41 41 40 40 40 39 40 40 41 43 45 47 49 51 53 54 53 49 45 43 42 43 44 44 44 45 47 47 44 45 46 47 47 48 49 50 50 51 53 55 57 58 59
17 19 20 22 24 25 27 29 30 32 33 35 36 37 38 39 40 41 41 42 42 42 43 44 45 46 46 47 48 48 47 47 46 45 44 44 43 43 42 42 41 40 39 39 39 38 38 38 38 38 39 39 41 42 45 47 49 51 52 53 51 48 44 42 42 43 45 45 45 44 45 49 48 45 46 47 47 48 49 51 51 52 53 54 57 58 59 60
14 16 18 20 21 23 24 26 28 29 31 32 33 34 35 36 37 37 38 38 38 38 39 40 40 41 42 42 43 43 42 42 41 41 40 40 40 39 39 39 39 37 36 36 36 36 36 37 37 38 39 40 42 44 47 49 50 52 52 50 46 43 42 42 43 45 46 46 46 44 44 50 50 46 47 48 48 49 52 54 53 53 54 56 58 59 60 61
12 13 15 17 19 20 22 24 26 28 29 30 32 33 34 35 36 36 36 36 36 36 36 37 38 38 38 39 39 40 40 39 38 38 37 37 37 37 37 37 36 35 34 35 35 35 35 36 37 38 40 42 44 46 48 50 51 51 49 46 42 42 43 44 44 45 47 46 46 44 43 49 52 50 49 50 50 51 54 56 55 55 57 58 60 61 62 63
11 12 14 15 17 19 21 23 24 26 28 29 31 32 33 34 35 35 35 35 35 35 35 35 36 37 36 37 37 38 37 36 36 36 36 36 36 35 34 33 33 33 33 34 34 35 35 36 38 40 42 44 46 48 50 51 51 48 44 42 41 43 44 45 45 46 47 46 46 45 44 48 54 53 51 51 51 52 56 58 57 58 59 60 61 62 64 65
12 13 14 16 17 19 21 23 24 26 27 29 30 31 32 33 34 34 34 34 34 34 35 35 36 36 35 35 35 35 34 34 34 34 34 33 32 32 31 31 32 33 33 34 35 36 37 39 41 43 45 46 48 50 50 50 47 43 41 41 43 44 46 46 46 46 47 45 46 46 45 48 54 55 54 52 52 54 58 60 59 60 60 61 62 64 66 67
15 16 16 18 19 21 23 24 26 27 28 28 29 30 31 32 33 33 34 34 34 35 35 36 36 36 35 34 33 31 31 31 31 30 30 29 28 28 29 30 32 33 35 36 37 38 40 42 44 45 47 49 50 49 49 47 44 41 41 43 45 46 47 47 46 46 46 45 46 47 46 49 54 57 56 54 54 55 59 60 61 61 62 63 64 66 68 69
18 19 19 20 21 23 24 26 27 28 29 29 29 30 31 32 32 33 34 34 35 35 35 36 36 34 33 32 30 29 29 28 27 26 26 26 26 28 30 32 34 35 37 38 40 41 43 45 46 48 49 50 49 48 46 43 41 41 43 44 46 48 48 46 45 45 46 45 47 48 47 49 55 58 58 56 56 57 59 60 62 63 64 64 66 68 70 70
21 22 22 22 23 24 25 27 28 29 29 29 30 30 31 31 31 32 32 33 34 34 34 34 34 31 29 28 27 26 26 26 25 26 26 27 29 31 33 35 37 38 40 41 43 44 45 47 48 49 49 48 48 46 43 41 41 43 44 45 47 48 48 46 45 45 45 45 47 49 48 50 55 59 60 59 58 59 60 61 63 65 66 67 68 70 70 71
24 25 24 24 25 26 26 27 28 29 29 29 28 28 28 28 28 29 30 31 31 32 32 31 30 29 28 27 25 24 24 25 27 29 30 32 33 35 37 38 39 40 42 43 44 46 47 48 49 47 47 47 47 44 41 41 43 44 45 46 47 47 46 46 45 45 46 45 47 50 49 51 56 59 61 61 60 61 61 62 64 66 67 68 70 71 71 73
26 27 27 26 27 27 27 28 28 28 27 26 26 25 24 24 25 26 27 28 28 28 28 28 28 28 26 25 24 24 26 28 30 31 33 34 36 37 38 39 40 41 43 44 46 47 48 47 46 45 46 47 45 43 42 43 44 45 46 47 48 47 45 45 45 45 46 45 47 50 50 52 57 60 62 62 62 62 63 64 66 68 69 70 71 72 72 74
28 29 28 28 28 27 28 28 28 27 25 24 23 22 22 22 22 23 24 24 25 25 25 26 26 24 23 24 24 26 29 32 34 35 36 37 38 39 40 41 42 43 45 46 46 46 45 45 45 46 48 47 45 44 44 45 46 47 48 49 49 48 45 45 46 46 47 47 48 50 51 53 57 61 62 63 63 64 65 67 68 69 71 71 72 72 73 74
30 30 30 30 29 28 29 28 27 27 25 23 21 21 20 20 20 20 21 21 22 23 24 26 25 24 25 27 28 29 30 33 35 37 38 39 40 41 42 44 44 45 46 46 45 44 45 46 47 48 48 46 45 46 46 47 48 49 50 50 51 49 46 45 47 48 48 48 49 51 51 53 57 62 63 64 65 65 67 69 70 71 72 72 72 73 73 74
30 30 31 31 30 30 29 29 27 26 25 23 21 20 19 18 18 18 19 20 21 23 24 26 26 27 28 30 31 32 34 35 37 39 39 40 42 43 43 44 44 44 44 44 44 45 47 48 49 48 47 46 46 47 47 47 48 50 51 52 52 49 47 46 47 48 48 50 52 53 53 52 56 63 65 65 66 66 68 69 71 72 72 72 72 73 74 75
31 31 32 32 32 31 31 31 28 25 24 23 21 19 18 18 17 17 18 19 21 23 25 26 27 28 29 31 33 34 36 38 39 40 41 42 42 43 43 43 43 43 43 44 46 47 49 49 49 48 47 47 47 48 48 48 49 51 53 54 52 49 47 47 48 48 48 50 52 56 56 52 56 64 67 67 67 67 68 69 71 72 72 72 73 73 74 75
32 32 32 33 33 33 32 32 29 26 23 22 21 19 18 17 18 18 17 19 21 22 23 25 26 27 29 31 33 34 36 38 39 40 41 42 42 42 42 42 42 42 44 45 47 48 49 49 48 47 46 47 47 49 49 50 50 51 54 55 52 48 47 48 49 49 49 50 51 57 59 54 55 64 68 68 68 68 68 70 71 72 72 73 73 74 74 75
33 33 33 33 34 34 34 33 31 26 23 22 21 20 19 17 18 19 18 19 22 23 23 24 24 26 29 30 32 33 34 35 37 38 39 39 40 40 40 42 43 44 46 46 46 48 49 48 47 46 46 47 48 50 51 52 51 52 55 55 51 48 48 49 49 50 50 50 51 56 60 57 56 64 69 69 68 68 69 71 72 72 72 73 73 73 73 73
33 33 33 34 34 35 35 34 31 27 22 21 20 20 20 19 19 20 21 20 22 24 25 25 26 28 30 31 31 32 33 34 35 36 37 39 40 41 42 44 44 45 45 46 47 50 49 46 46 46 47 48 49 51 52 53 53 55 56 54 50 49 49 49 49 50 51 50 51 55 59 59 58 64 70 69 68 69 70 72 73 73 73 73 72 71 71 72
33 33 34 34 35 36 36 35 32 27 22 20 20 20 20 21 21 22 24 24 24 26 27 27 29 31 33 34 35 36 37 38 39 40 40 42 43 43 44 44 44 45 46 48 49 49 47 45 45 46 48 49 50 52 53 55 56 56 55 51 50 49 48 48 48 50 51 51 52 55 57 58 58 64 71 70 69 70 71 73 73 72 72 71 69 69 70 71
33 34 34 35 36 36 37 35 32 27 22 19 19 20 20 22 24 25 26 27 27 27 29 30 31 33 35 37 39 40 41 42 42 43 43 44 44 44 44 45 46 46 48 50 49 47 46 46 46 48 49 50 52 53 55 56 57 55 52 50 50 49 48 47 48 51 52 51 52 54 57 59 60 64 70 71 71 71 71 72 71 70 69 68 67 68 67 64
34 34 35 36 36 37 36 35 31 27 23 19 18 19 20 22 24 26 28 29 29 30 31 32 33 34 35 37 39 41 42 43 43 43 44 44 44 44 45 46 47 48 49 49 47 45 46 47 48 49 50 51 53 55 56 56 55 53 51 51 50 49 49 47 48 51 52 51 52 54 56 59 61 65 69 71 72 71 69 69 69 68 67 65 64 62 60 58
34 34 36 36 37 37 36 34 30 26 23 21 19 18 20 22 24 27 29 30 31 32 33 34 35 36 36 37 38 40 41 42 43 43 44 44 45 45 46 47 47 48 48 48 46 45 48 49 49 50 51 53 55 56 55 53 52 52 52 53 51 49 49 47 47 50 51 51 52 54 57 59 62 65 68 69 69 68 68 68 66 64 62 60 59 58 59 60
34 35 36 38 38 37 35 32 29 25 23 22 20 19 19 22 24 26 28 30 32 34 35 36 37 37 38 39 40 41 42 42 43 43 44 45 46 47 48 48 49 48 47 46 46 47 50 50 51 52 53 56 56 55 53 52 52 52 53 54 53 52 51 48 48 49 50 51 51 54 57 58 61 64 66 67 67 66 65 62 59 59 59 59 59 60 61 63
35 36 37 38 38 36 34 30 26 24 23 22 21 20 20 21 22 24 26 28 31 33 35 37 38 39 40 41 42 42 43 44 45 45 47 48 49 49 49 49 49 48 47 46 47 48 50 51 52 54 55 56 55 54 53 52 52 52 53 54 54 56 55 52 50 50 50 50 49 51 54 55 59 64 66 65 63 60 58 56 57 58 60 61 62 62 64 65
36 37 38 38 37 35 31 28 25 23 22 22 21 21 20 21 21 23 24 26 28 31 33 36 38 39 40 42 43 44 44 46 47 47 48 49 50 50 50 50 49 49 48 48 49 48 49 50 53 54 54 54 53 53 53 52 52 52 53 55 55 56 57 56 54 52 52 48 44 46 50 53 59 63 62 60 57 55 56 57 59 61 62 64 64 65 67 68
37 38 39 38 35 32 29 25 23 22 22 22 21 21 21 21 21 21 23 24 26 28 30 33 36 38 39 41 43 44 45 46 47 48 48 48 49 49 49 49 49 49 50 49 49 47 47 48 51 52 52 53 53 52 52 52 53 53 53 55 56 56 57 57 54 52 52 47 42 42 45 49 56 58 56 55 55 56 58 59 61 63 65 66 67 68 70 71
38 39 39 37 33 29 26 24 22 22 21 21 21 20 20 20 20 20 21 22 23 25 27 30 32 35 37 39 40 42 43 44 45 46 47 46 46 47 47 48 49 49 49 48 47 46 44 45 48 51 51 52 51 51 52 53 54 54 55 56 56 55 56 56 53 50 48 43 37 36 39 46 54 56 54 55 56 58 60 62 65 66 67 68 70 72 73 74
39 39 37 34 30 26 24 22 21 21 21 20 19 19 19 19 19 20 20 20 21 23 24 26 28 30 33 35 36 37 38 40 41 42 43 44 44 45 46 47 47 47 46 45 44 44 43 43 46 50 51 51 51 52 53 54 55 55 56 56 56 55 54 52 49 45 41 36 33 33 36 45 56 58 56 56 58 60 62 65 68 69 70 71 73 75 76 78
39 38 35 30 26 24 22 21 21 20 19 19 18 18 18 19 19 19 20 20 20 21 22 24 26 27 29 31 32 34 34 36 38 39 40 41 42 43 44 44 44 43 43 43 43 43 43 42 43 47 50 51 52 53 54 54 55 55 56 56 55 53 49 45 42 41 39 37 37 36 36 45 57 58 56 58 60 62 64 67 70 72 73 74 75 77 79 81
39 36 31 27 24 22 21 20 20 19 18 18 18 18 18 19 20 19 20 19 19 20 20 22 24 26 27 29 30 32 33 34 36 37 38 38 38 39 40 41 41 42 42 42 42 42 42 42 42 46 49 50 52 53 53 54 54 54 53 51 47 44 41 38 38 41 43 42 42 40 39 48 58 59 58 60 62 64 67 69 72 74 76 78 79 81 83 85
36 31 27 24 22 21 20 19 19 18 18 18 18 18 18 19 20 20 20 19 19 19 20 21 22 24 26 27 28 30 32 33 34 34 36 36 36 38 39 39 40 41 41 41 41 41 41 42 43 45 48 50 52 52 52 51 49 47 44 41 39 38 38 38 39 42 45 46 48 46 44 51 60 62 62 64 66 68 70 72 74 77 80 81 83 86 88 90
32 27 23 21 20 19 19 18 17 17 17 18 19 19 19 20 20 20 20 20 20 20 21 22 23 24 25 27 28 29 31 33 34 35 35 36 37 37 38 38 39 39 39 40 40 41 41 41 42 44 47 48 48 45 43 41 39 38 37 37 38 39 41 42 42 44 46 50 53 53 51 55 62 65 66 68 69 72 74 76 78 80 83 86 88 90 93 95
27 24 21 20 19 18 17 16 16 17 18 19 20 20 20 20 20 20 21 21 21 22 22 24 25 26 27 28 29 30 32 34 36 36 36 37 37 37 37 38 38 38 38 39 40 40 40 41 40 40 41 42 40 36 35 35 35 36 38 39 41 43 45 47 48 49 50 53 57 58 57 59 64 67 69 70 72 75 78 81 83 85 87 90 93 95 98 100
23 21 20 18 17 17 16 16 16 18 19 20 21 21 21 21 21 22 22 23 23 24 24 26 27 27 29 29 31 32 32 34 36 37 37 37 37 37 37 37 37 37 37 37 38 38 38 37 33 30 31 33 34 33 34 36 38 40 41 43 45 47 50 51 53 54 55 57 61 63 62 63 68 72 73 74 76 78 82 85 88 90 93 95 97 99 102 104
21 19 18 17 16 16 16 16 18 19 20 21 22 22 22 22 23 23 23 24 25 26 26 28 28 29 30 31 32 33 33 34 35 36 36 36 37 37 36 37 37 36 36 36 35 34 32 30 27 26 27 29 30 32 35 37 40 43 45 47 49 51 54 56 57 58 59 59 63 67 66 66 71 76 77 79 81 83 86 89 92 95 98 100 102 103 105 108
19 17 16 15 15 16 17 18 19 21 22 22 23 23 23 24 24 24 25 25 26 27 28 29 30 30 31 32 32 33 34 34 34 35 36 36 36 36 36 36 35 35 34 32 29 26 26 27 28 29 30 30 31 34 36 39 42 44 47 50 52 55 58 60 62 63 64 63 64 69 71 70 73 78 81 83 85 87 89 92 95 99 102 103 105 106 108 111
17 15 15 15 16 17 18 19 21 22 22 23 23 24 25 25 26 26 26 27 28 29 29 30 30 31 31 32 33 33 34 34 34 35 35 35 35 35 35 34 34 33 29 25 23 22 25 28 30 32 33 33 34 37 39 41 44 47 50 53 56 58 61 64 66 67 68 68 68 71 75 75 77 81 83 86 89 91 93 96 99 102 105 106 107 109 112 114
14 14 14 16 17 19 20 21 22 23 23 24 24 25 26 27 27 28 28 28 29 29 30 30 31 31 31 32 33 33 34 35 35 35 35 36 35 34 33 33 30 27 23 21 22 23 25 29 32 36 38 37 37 40 43 45 48 50 52 55 58 61 64 66 70 71 72 73 73 74 77 80 83 84 87 90 93 95 98 100 103 106 109 110 111 113 116 118
13 14 16 18 19 21 22 23 24 24 25 25 25 26 27 28 28 29 29 29 29 30 30 31 32 32 32 33 33 34 35 35 36 36 36 35 34 33 32 29 24 21 21 22 23 24 27 31 34 38 42 43 43 45 48 49 52 55 57 59 61 64 67 70 73 75 76 77 78 79 80 84 87 89 91 94 97 100 102 104 107 110 113 115 116 118 120 122
14 16 18 20 21 22 23 24 24 25 26 26 27 27 28 29 29 29 30 30 31 32 32 32 33 34 34 35 35 35 36 35 35 35 34 33 33 31 27 22 20 21 22 24 26 27 30 33 35 39 44 48 48 50 53 54 56 59 61 64 66 68 70 73 76 79 80 80 82 84 86 88 91 93 94 97 101 104 107 109 111 115 118 119 121 122 124 125
16 18 20 21 23 24 24 25 25 25 26 27 28 29 29 30 30 30 31 32 32 33 34 35 35 36 36 36 36 35 35 34 33 33 33 32 30 25 21 19 20 23 24 26 29 31 33 35 38 40 45 50 53 54 57 59 60 62 65 67 70 71 73 75 79 83 84 84 85 88 90 92 93 95 97 99 103 107 111 114 116 119 121 122 124 126 127 128
18 20 21 22 24 24 25 25 26 26 27 28 29 30 30 31 32 32 33 34 34 35 36 36 36 36 36 35 35 34 33 33 33 32 31 27 23 20 19 20 22 24 27 29 32 34 36 38 40 43 46 51 55 57 60 62 63 66 68 71 73 75 76 78 82 87 89 89 90 92 94 95 98 99 101 103 105 109 114 118 121 123 124 125 127 129 130 129
Wind_Direction
227 228 230 231 232 233 235 236 237 238 239 240 241 242 244 245 246 247 248 249 250 252 253 254 255 256 257 258 259 259 260 261 262 263 264 265 265 266 266 267 269 270 271 273 274 275 276 278 279 280 281 282 283 284 285 285 286 287 288 288 289 289 290 290 291 292 292 293 294 295 295 296 296 296 295 295 294 294 293 291 290 289 289 288 289 289 289 289
228 229 231 233 234 235 236 237 239 240 241 242 243 244 245 246 247 248 249 250 252 253 254 255 256 257 257 258 259 260 261 262 263 263 265 266 267 267 268 268 269 270 271 272 274 275 276 277 279 280 281 282 283 283 284 285 286 287 287 288 288 289 290 290 291 292 293 294 295 296 296 296 296 295 295 294 294 294 292 291 290 290 289 289 289 289 289 290
229 231 232 234 236 238 239 240 241 242 243 244 245 246 247 248 248 249 250 251 253 254 255 256 256 257 258 259 260 260 261 262 263 264 265 266 267 268 268 269 269 270 271 272 273 275 276 277 278 279 281 282 282 283 284 285 286 286 287 288 288 289 290 291 292 293 294 295 297 297 296 296 295 294 294 294 293 293 291 290 290 290 289 289 289 290 290 290
230 231 233 235 237 239 241 242 243 244 245 246 247 248 249 250 250 251 252 253 254 255 255 256 257 258 259 259 260 261 262 263 264 265 265 266 267 268 269 270 270 271 272 273 274 275 277 278 278 279 280 281 282 283 284 285 286 286 287 288 288 289 290 292 293 294 296 298 298 298 296 296 295 294 294 293 294 293 290 290 290 289 289 289 289 289 290 290
231 232 234 236 238 240 242 243 245 246 247 248 249 250 251 252 252 253 254 254 255 256 257 258 258 259 259 260 261 262 263 263 264 265 266 267 268 269 270 271 271 272 273 274 275 276 277 277 278 279 280 281 282 283 284 285 285 286 287 288 289 290 291 293 295 296 298 299 298 297 296 296 295 294 294 294 294 291 290 290 290 289 289 288 289 289 290 290
232 234 235 237 239 241 243 244 246 247 247 249 250 251 252 253 253 254 255 255 256 257 258 259 259 260 260 261 261 262 263 264 265 266 267 268 268 269 270 271 272 273 273 274 275 275 276 276 277 278 279 280 281 282 283 284 285 286 287 288 289 291 292 294 297 298 299 298 297 296 296 295 295 294 294 294 293 290 290 290 289 289 289 288 289 290 291 291
233 235 236 238 239 241 243 245 246 248 248 249 250 251 252 253 254 254 255 256 257 258 259 260 260 261 262 262 263 263 264 265 266 267 268 268 269 270 271 271 272 272 273 273 273 274 274 275 276 277 278 279 280 281 282 283 285 286 287 288 290 292 294 296 298 299 298 297 296 296 296 295 294 294 294 294 292 290 291 290 289 290 290 290 291 292 292 293
233 235 237 239 241 242 243 245 246 248 249 250 250 251 252 253 254 255 255 256 257 258 259 260 261 262 263 264 264 265 266 266 267 268 269 269 270 270 271 271 271 271 271 271 272 271 272 272 274 275 276 278 279 280 281 283 285 286 287 289 291 294 296 298 299 298 297 296 296 296 296 294 293 293 293 291 290 290 291 291 291 291 291 292 293 293 294 294
234 236 238 240 242 243 244 245 246 248 249 250 251 252 253 254 254 255 256 256 257 259 260 261 262 263 264 264 265 266 266 267 267 268 269 270 270 270 270 270 270 270 269 269 269 269 270 271 272 274 275 277 278 280 281 283 284 286 288 290 293 296 298 299 298 296 295 296 296 296 295 292 291 292 291 289 289 290 290 290 291 292 292 293 295 295 295 296
237 239 241 243 244 245 247 248 249 250 250 251 252 253 254 255 255 256 256 257 258 259 260 261 262 262 263 264 264 265 266 266 267 268 268 268 268 268 268 268 267 267 267 266 267 267 268 270 271 273 275 276 277 279 281 282 284 286 290 293 296 298 298 298 296 295 295 296 295 295 293 289 290 291 289 288 289 290 290 291 291 292 294 295 296 296 296 297
241 244 245 247 248 250 251 251 252 253 253 253 254 254 255 256 257 257 257 258 258 259 259 260 261 262 262 263 264 264 265 265 266 266 266 266 266 265 265 265 265 264 264 265 265 267 268 270 271 272 274 275 277 279 281 283 286 290 293 296 298 298 297 296 295 295 295 295 294 293 291 288 289 290 289 289 290 290 291 291 292 293 295 296 296 296 296 297
246 248 250 252 253 254 255 255 256 256 256 256 256 256 257 257 257 258 258 258 258 258 259 259 260 261 262 262 263 263 264 264 264 264 264 263 263 262 262 262 262 262 262 264 265 267 268 269 270 271 273 275 278 280 283 286 290 294 296 297 298 297 296 295 296 296 295 294 292 291 289 287 288 289 288 289 290 291 291 291 291 293 295 296 296 296 297 298
251 253 255 256 257 258 259 260 260 260 260 259 259 258 258 258 258 257 257 257 257 257 257 258 259 260 261 262 263 263 264 264 263 262 261 260 259 259 259 259 259 260 261 263 265 266 267 268 270 271 274 277 280 283 287 290 293 296 297 297 296 295 295 296 296 295 294 292 291 290 289 287 288 288 288 289 290 291 291 290 292 294 295 296 296 296 297 298
264 264 266 266 266 266 266 266 265 264 263 262 261 260 259 259 258 257 256 256 255 255 256 256 257 258 259 260 262 263 262 262 261 259 257 255 255 255 255 257 258 259 261 263 264 265 265 267 270 273 276 280 283 286 290 292 295 296 296 295 295 295 296 296 296 295 293 291 290 290 289 288 289 289 288 289 291 292 292 292 294 295 296 296 296 297 298 298
281 281 280 279 278 277 275 273 271 269 267 265 263 261 260 259 258 258 257 256 255 255 256 256 257 258 258 260 261 261 261 260 258 256 253 252 252 252 254 255 257 259 260 261 262 262 264 268 271 275 278 282 285 289 291 293 295 295 294 294 295 296 297 297 296 294 292 291 290 289 289 288 289 289 289 290 292 293 293 294 296 296 296 296 297 297 298 298
297 295 293 292 291 289 286 282 279 276 272 269 267 264 262 260 259 258 257 257 257 256 257 257 258 258 259 260 260 259 257 255 253 251 250 250 252 254 255 257 258 258 258 258 259 262 266 269 273 277 280 284 287 290 292 294 295 294 293 294 296 298 298 297 296 293 291 291 289 289 289 288 288 289 290 291 293 293 294 295 296 296 295 296 297 297 297 298
311 309 306 305 303 301 297 292 287 282 278 275 272 269 266 263 260 259 258 257 257 257 257 258 259 260 260 259 256 254 253 251 250 250 251 253 254 255 255 255 254 254 255 257 260 264 268 272 276 279 283 286 289 291 294 295 294 293 294 295 297 298 298 297 295 292 290 290 288 288 288 288 289 289 290 292 293 293 293 294 294 295 295 296 296 296 297 298
316 314 312 310 309 306 301 296 290 286 283 281 278 274 270 266 263 261 259 258 257 257 258 258 259 259 259 256 251 249 249 251 252 254 255 254 252 249 248 249 249 252 255 259 263 267 271 275 279 282 285 288 290 293 295 294 293 293 294 296 298 299 298 296 293 291 289 289 287 287 288 288 289 290 290 291 292 291 292 293 293 294 295 295 295 296 297 299
316 315 313 312 310 308 303 298 293 290 287 284 281 277 272 269 265 262 260 258 257 257 257 257 257 255 251 247 246 248 250 251 251 249 246 244 243 243 244 247 250 254 258 263 267 271 275 279 282 285 287 290 293 295 294 293 293 294 295 297 299 299 297 295 293 291 290 289 287 288 288 288 288 289 290 291 291 291 291 292 293 294 295 295 296 297 298 300
314 314 313 313 311 309 306 301 297 293 290 287 284 279 275 270 266 263 260 258 256 255 254 253 250 246 241 240 243 247 250 250 248 246 245 245 246 248 250 252 256 260 264 268 272 276 279 282 284 287 290 293 296 295 293 293 294 295 296 298 301 300 297 294 293 292 291 290 288 288 290 289 288 289 289 290 290 291 292 293 294 294 295 296 296 298 300 301
312 312 313 313 312 311 308 306 302 298 294 291 287 283 278 273 269 265 261 258 255 252 248 245 241 240 240 243 245 244 245 248 249 250 251 253 254 256 257 259 263 266 269 273 277 280 282 284 286 289 293 296 295 293 292 294 295 296 298 300 303 301 297 295 294 293 292 291 289 289 290 290 289 289 289 291 292 293 294 294 294 295 296 296 298 300 301 301
311 312 313 313 313 313 312 311 309 304 300 296 291 287 282 277 272 266 262 257 252 246 240 235 233 237 240 241 242 242 244 248 251 253 255 257 259 260 262 264 267 270 274 277 280 281 283 285 289 293 295 295 293 292 292 293 295 297 299 302 304 302 298 296 295 294 293 292 291 290 291 291 290 290 290 292 293 294 295 294 295 296 297 298 299 301 301 301
309 312 313 313 315 316 316 317 316 311 306 302 296 291 286 280 273 265 258 251 246 240 233 230 228 231 234 235 237 241 245 248 251 255 258 259 261 262 264 267 270 274 277 279 281 282 285 288 292 294 295 293 292 292 292 293 295 297 299 302 304 302 298 296 296 295 295 293 291 290 290 290 290 290 290 291 293 295 295 295 297 297 297 299 300 301 301 302
309 312 313 315 316 318 320 321 321 316 310 305 300 294 289 282 272 262 255 246 238 233 231 231 231 232 235 238 241 243 246 249 252 255 258 261 263 265 267 270 274 276 278 280 281 284 287 290 293 294 293 292 291 292 293 294 295 297 299 302 304 301 298 297 296 295 295 293 292 291 290 290 290 290 291 292 294 295 295 296 297 297 297 299 300 301 301 301
310 312 314 316 318 320 322 324 323 319 312 306 301 295 289 280 269 260 253 243 235 233 234 235 237 238 241 243 246 248 249 251 254 257 260 263 265 267 270 273 276 277 279 281 284 286 289 291 293 293 293 291 291 293 294 294 296 298 299 302 303 299 297 297 296 295 294 292 292 291 291 292 291 290 291 292 294 295 296 297 297 297 298 299 300 301 301 301
310 312 314 317 319 321 324 324 324 321 314 306 300 296 288 277 267 260 252 244 238 237 239 241 243 245 247 248 250 253 254 256 258 260 263 265 267 269 272 274 276 278 281 284 286 288 290 293 293 293 292 291 291 293 294 294 296 298 299 302 301 298 297 297 296 296 294 293 293 291 292 294 293 291 292 293 295 296 297 297 297 297 299 299 300 301 301 302
309 312 314 317 319 321 324 324 323 321 315 305 300 295 288 278 267 261 255 247 243 241 241 244 249 251 253 254 255 257 259 260 262 263 265 266 268 269 271 274 278 281 283 286 288 290 292 294 294 293 292 291 291 292 293 294 296 297 299 300 299 296 297 297 296 296 294 294 293 292 293 296 296 294 293 295 296 297 297 297 297 298 299 300 301 301 302 301
308 311 314 316 319 321 322 322 321 319 314 304 298 293 286 279 269 263 260 252 247 246 245 243 246 249 253 255 257 259 260 261 262 263 264 266 268 270 273 277 280 282 284 287 290 293 294 294 293 292 291 290 291 292 293 294 296 297 298 298 296 296 297 296 297 296 295 295 294 293 294 297 298 296 294 296 297 297 297 297 297 299 300 301 301 302 301 299
308 311 313 315 318 320 321 321 318 316 312 303 296 291 283 276 270 264 262 258 253 251 250 247 246 246 248 250 252 254 257 259 260 262 264 266 269 273 276 278 280 283 286 289 292 294 294 294 293 291 291 291 291 293 294 295 296 297 297 296 296 296 296 297 297 296 296 297 296 296 297 298 299 297 296 297 297 297 298 297 298 300 300 301 301 301 299 300
308 311 313 315 318 319 319 318 316 313 310 302 293 288 282 274 269 266 264 262 259 255 254 253 252 251 251 251 253 255 257 260 262 264 267 269 272 274 276 278 281 284 289 292 293 293 293 293 292 291 290 291 292 293 294 295 296 296 296 295 296 297 297 298 298 297 298 299 299 300 300 300 300 298 296 297 297 297 297 297 298 299 300 301 301 300 301 304
308 310 312 315 317 318 317 316 313 310 308 302 292 286 281 274 270 266 264 264 262 259 257 256 255 255 255 256 256 258 260 262 264 267 269 271 272 274 276 279 283 288 291 293 292 292 292 292 292 291 291 291 292 293 294 295 296 296 296 296 296 297 298 299 300 299 300 302 302 302 302 301 300 298 297 297 297 297 296 297 299 301 302 302 301 302 306 308
308 310 312 315 316 316 315 313 310 308 305 301 295 286 280 276 272 268 266 265 263 261 259 258 258 258 258 259 260 261 263 265 266 268 270 271 273 276 279 283 286 289 292 292 291 292 292 292 292 291 292 292 293 294 295 296 296 297 298 298 298 298 298 300 301 300 301 302 303 303 302 301 300 298 297 296 295 296 297 300 303 305 304 303 304 307 308 308
308 310 312 314 315 315 313 310 306 304 302 300 297 291 283 277 274 270 268 265 262 261 260 259 259 259 260 261 263 265 266 268 269 271 273 274 277 280 282 285 287 289 290 289 290 292 292 293 293 293 294 294 294 295 296 297 298 299 299 299 301 300 300 301 301 300 302 303 305 304 302 301 300 297 295 294 294 297 302 306 307 306 305 306 307 308 307 306
309 311 312 314 314 313 310 307 303 301 300 299 297 294 288 281 277 273 271 268 264 262 261 260 260 260 261 263 264 266 268 270 271 273 275 277 279 282 284 286 287 288 288 288 289 290 291 291 292 293 294 294 295 296 298 299 299 300 300 301 302 302 302 303 303 303 304 305 306 305 302 301 298 295 294 295 299 304 308 310 308 306 306 306 307 307 306 304
309 311 312 313 313 311 307 303 300 299 298 298 297 295 291 286 281 278 275 272 268 264 262 261 260 260 261 263 265 267 268 270 272 274 275 277 280 282 284 285 287 287 287 288 289 289 290 291 292 293 294 294 296 297 299 299 300 300 300 301 301 302 303 305 306 306 306 306 307 304 301 299 296 295 297 301 306 310 310 308 306 306 306 306 306 306 305 305
309 311 312 312 311 308 304 300 298 298 297 297 296 295 292 289 285 283 280 277 273 268 265 262 262 262 262 263 265 267 269 271 273 275 277 279 280 282 283 285 286 287 287 288 289 289 290 291 292 293 294 295 296 298 299 299 299 299 300 300 301 303 304 305 307 308 307 307 307 304 301 299 296 297 300 305 310 310 308 307 307 306 306 307 307 307 307 308
309 310 311 310 309 305 301 298 297 296 296 296 295 295 294 291 289 287 285 282 277 273 269 266 265 264 265 265 266 268 270 272 274 277 279 280 281 282 283 284 285 286 287 288 290 291 292 294 294 294 295 296 297 298 299 299 299 300 301 302 303 304 305 306 308 309 308 308 309 307 306 303 299 299 303 308 310 308 308 308 308 307 308 309 309 309 310 310
309 309 309 308 305 301 298 296 295 295 295 295 296 297 296 294 293 292 289 285 281 277 273 270 269 268 268 269 270 271 273 275 277 278 280 281 282 283 283 284 285 286 288 290 292 294 295 296 296 297 297 298 299 299 299 299 301 302 303 303 304 305 307 309 310 309 307 309 311 311 311 306 300 301 307 310 309 309 310 310 309 309 310 310 310 311 311 311
308 308 307 305 301 298 296 294 294 295 295 297 298 299 298 297 296 296 293 290 285 282 278 275 274 273 272 273 274 275 276 278 279 280 281 282 282 283 284 285 287 289 291 293 295 296 297 298 298 297 297 298 299 299 299 300 302 303 303 304 306 308 310 311 311 309 309 313 313 313 314 306 300 304 309 310 310 311 311 310 310 310 311 310 310 310 311 311
307 306 304 301 298 296 294 295 296 296 297 299 300 300 301 300 300 299 297 295 292 288 285 281 278 277 278 277 278 279 280 280 281 281 282 282 284 285 287 289 291 293 294 296 297 298 299 299 299 297 297 298 299 299 300 301 302 303 304 306 308 311 311 312 312 311 312 315 312 313 314 306 302 307 310 309 311 312 311 311 311 310 310 310 310 310 311 312
305 303 300 297 296 294 294 295 296 297 299 300 301 302 302 301 301 300 299 299 297 295 292 289 285 283 283 282 283 283 284 285 285 285 286 287 289 290 291 292 294 295 296 297 298 298 299 299 299 298 299 299 299 300 302 304 306 307 309 311 313 314 313 313 313 312 313 314 312 313 315 308 307 310 311 312 313 313 312 311 311 310 310 310 310 311 312 313
302 299 296 295 294 293 294 295 296 299 300 301 301 302 302 301 301 301 301 302 301 299 296 294 292 291 290 290 290 289 289 289 290 290 291 292 293 293 294 295 296 296 296 297 298 298 300 300 300 300 300 299 300 304 309 312 313 313 314 316 316 315 314 313 313 313 314 313 312 314 315 311 310 311 312 314 314 313 312 311 310 310 310 310 311 312 313 314
298 295 294 292 292 292 292 294 297 300 300 300 300 300 300 299 300 301 302 302 301 301 300 298 297 297 296 295 294 293 292 292 292 293 294 294 295 295 295 295 295 296 297 298 299 300 301 301 301 301 302 302 307 314 318 318 316 316 317 317 317 315 314 314 314 314 315 314 313 314 315 314 311 310 312 314 313 312 312 311 311 311 311 311 312 314 315 315
294 292 291 290 291 291 293 296 299 300 299 299 298 298 299 299 301 302 303 303 303 303 302 301 300 299 298 296 295 294 294 293 293 294 295 295 294 295 294 295 295 296 298 300 301 301 301 300 301 303 303 307 314 319 320 317 316 316 317 317 316 315 314 314 314 315 316 316 315 314 315 316 312 311 313 314 313 313 313 313 313 312 312 313 314 315 315 315
292 290 289 290 291 292 296 299 300 299 298 297 298 299 300 301 302 303 304 304 304 304 303 302 301 300 299 298 297 296 295 295 294 294 294 294 293 293 294 295 297 298 300 301 300 300 299 300 302 303 304 309 314 315 314 314 314 315 315 315 315 314 315 314 314 314 315 317 315 313 315 316 312 311 314 315 314 314 314 313 313 313 313 314 315 315 315 315
290 289 290 291 293 295 298 299 297 296 296 297 298 300 301 302 303 304 305 305 305 305 304 302 302 301 300 299 298 297 296 295 293 293 292 292 292 293 295 297 298 299 299 298 297 297 298 301 303 304 305 310 311 310 310 311 312 313 314 314 315 315 315 314 314 314 315 316 316 313 314 315 312 312 314 314 314 314 314 313 313 313 313 314 314 315 314 314
288 290 292 294 297 298 298 296 295 295 296 298 300 301 303 305 306 307 307 307 307 306 304 304 303 302 301 300 298 297 295 294 293 293 292 293 294 296 297 298 298 298 296 294 293 296 299 301 303 304 305 309 311 309 310 311 311 313 314 314 314 314 314 313 313 314 314 315 316 314 314 315 313 313 314 314 314 314 314 314 314 313 312 313 314 314 314 314
289 292 295 296 297 296 295 295 295 297 299 301 303 305 307 308 309 310 309 309 307 306 305 304 302 301 300 298 297 296 294 294 294 294 294 296 297 297 297 297 297 294 291 290 294 298 300 302 304 305 306 309 310 310 311 312 312 313 313 313 313 313 313 314 314 314 314 315 315 315 315 314 313 314 315 314 314 315 314 314 313 312 312 313 314 315 315 315
291 294 295 295 294 294 295 297 298 300 303 306 307 309 310 310 310 310 309 308 306 305 303 303 301 300 298 296 295 294 294 294 295 296 297 298 298 298 298 297 293 290 290 293 296 299 300 302 306 308 308 309 311 312 312 313 313 313 313 313 314 314 314 315 314 313 314 315 315 315 315 314 314 315 316 315 315 315 314 313 313 312 312 314 315 315 315 315
293 294 294 294 295 297 299 301 303 305 308 310 311 310 310 309 308 307 306 305 304 303 302 301 300 299 297 296 296 296 296 297 297 298 298 297 298 298 296 293 291 291 294 296 297 299 302 304 306 309 309 310 312 313 313 313 313 314 314 314 314 315 315 315 314 313 313 315 315 315 315 315 315 316 316 315 315 314 314 313 313 312 313 314 315 315 315 315
293 294 296 297 299 302 304 306 308 309 310 311 310 309 308 306 305 304 303 303 303 302 302 301 300 299 299 298 299 299 299 299 297 296 297 297 297 295 292 290 292 294 295 297 298 300 303 304 306 309 309 310 312 313 312 313 313 314 314 314 314 315 316 315 314 313 313 314 315 315 315 315 315 315 315 315 315 315 314 313 312 312 313 314 314 314 315 316
295 297 299 301 303 305 307 308 309 309 309 309 307 305 305 304 303 303 303 303 304 303 302 302 302 301 301 301 301 300 299 297 296 297 297 295 292 289 289 292 293 294 296 298 299 301 304 305 307 308 309 309 310 311 311 312 313 314 314 314 315 316 316 316 315 313 313 315 315 315 315 315 315 314 314 314 314 314 314 313 312 312 313 314 315 315 316 317